ETSL

Details ICAO ETSL
Name LECHFELD
Region Germany - Military
Timezone Europe/Berlin (UTC+1.0)
Plans Departing 1
Arriving 0
Stats Elevation 1,822 ft / 555 m (AMSL)
Location 48.185499° 10.861168°
Runways 1
Magnetic Variation 2.832° E
Sunrise 2017-02-27 06:03:06 UTC / 2017-02-27 07:03:06 Local
Sunset 2017-02-27 16:58:24 UTC / 2017-02-27 17:58:24 Local
Advertisement - Login to hide

Runways

ID Width Length Bearing (true) Bearing (mag) Surface Threshold Offset Overrun Length
03 98 ft / 30 m 8,008 ft / 2,441 m 28.92° 26.09° Concrete 0 ft / 0 m 961 ft / 293 m
21 98 ft / 30 m 8,008 ft / 2,441 m 208.93° 206.10° Concrete 0 ft / 0 m 945 ft / 288 m

Map

Weather

Temperature
Clouds and Precipitation
Forecast for 2017-02-27 06:00 UTC. Updated 2 hours ago
Winds

METAR

ETSL 270620Z 19006KT 9999 FEW140 M00/M03 Q1012 BLU+

TAF

Not found

Frequencies

Tower 122.10 MHz TWR
Approach 123.30 MHz RADAR
Tower 135.15 MHz TWR
Approach 129.02 MHz RADAR
Warning: Do not use this data for real-world aviation or navigation. No guarantee of current accuracy is given.